NOAA 16 DEB

Satellite information

Favourite Embed

Satellite Type and Status

DEBRISIN ORBIT

Key statistics

Satellite NOAA 16 DEB at a glance.

Uptime

9168

Days in orbit

Revolutions

≈ 14.2

Per day

Orbit

SSO

Sun Synchronous Orbit

Inclination

98.7

Latest

Satellite identification and parameters

Extended collection of information and parameters for NOAA 16 DEB.

Object identification

Identified? True

Debris? True

Object name: NOAA 16 DEB

International designator: 2000-055DZ

Object number (NORAD): 41220

Object ID (CCSDS): 41220

Country: UNITED STATES OF AMERICA (US)

Current information (Y/N): Y

RCS size: SMALL

Orbital parameters

Period: 101.315 minutes

Inclination: 98.6824 deg

SMA: 7199.041 km

Apoapsis: 832.97 km

Periapsis: 808.843 km

RAAN: 345.6335 deg

Eccentricy: 0.00167566

Argument of periapsis: 142.057 deg

Mean anomaly: 218.1791 deg

Mean motion: 14.21316342 rev/day

Mean motion (dot): 0.00003876 rev/day2

B* drag term: 0.0017941729 1/REarth

Two-line elements (TLE)

Creation date: Oct. 26, 2025, 10:54 a.m.

Reference frame: TEME

Reference center: EARTH

Epoch: Oct. 26, 2025, 1:40 a.m. UTC

TLE line 0: 0 NOAA 16 DEB

TLE line 1: 1 41220U 00055DZ 25299.07007823 .00003876 00000-0 17942-2 0 9992

TLE line 2: 2 41220 98.6824 345.6335 0016757 142.0570 218.1791 14.21316342508911

Live tracking on map

Real-time ground track for satellite NOAA 16 DEB.

In-orbit conjunctions

A list of the most updated potential collisions computed for object NOAA 16 DEB.

Target Orbit TCA Probability of collision Miss distance Type
START 1 LEO 2024-11-25 20:27:51 0.0001725526 594.0 (m) PAYLOAD
COSMOS 1275 DEB LEO 2024-11-14 21:14:57 0.0007362612 266.0 (m) DEBRIS
FENGYUN 1C DEB SSO 2024-11-09 20:10:17 0.0001106526 546.0 (m) DEBRIS
COSMOS 2333 LEO 2024-06-05 21:41:19 0.000102895 723.0 (m) PAYLOAD

Associated space launch

The NOAA K, L and M POES satellites begin the fifth generation of improved environmental monitoring in support of NOAA missions. The instrument payload has significant improvements and additions/deletions. The instrument changes have effected the spacecraft subsystems and data formats.

NOAA 16 DEB was lifted into orbit during the mission ‘Titan II SLV | NOAA 16’, on board a Titan II SLV space rocket.

The launch took place on Sept. 21, 2000, 10:22 a.m. from Space Launch Complex 4W.

For more information about the launch, click the button.

Launch to space Titan II SLV | NOAA 16
Titan II SLV | NOAA 16

Agency: N/A

Status: Launch Successful

Launch date: Sept. 21, 2000, 10:22 a.m. UTC

Rocket: Titan II SLV

Launch pad: Space Launch Complex 4W

Location: Vandenberg SFB, CA, USA

...

Latest news about this satellite

There are no fresh news available about this satellite. Check back as we update our databases every day.


Newsletter sign-up

Weekly statistics, charts and insights to help you stay on top of the space industry.